Hourly Weather Bolshoe Panskoe

Today, 1 August, Sunday

Time Temperature Precipitation Wind Pressure Humidity
00:00 +17°C° 0 mm 2 mps 741 mmHg 69%
01:00 +17°C° 0 mm 2 mps 741 mmHg 71%
02:00 +17°C° 0 mm 2 mps 741 mmHg 72%
03:00 +17°C° 0 mm 2 mps 741 mmHg 71%
04:00 +17°C° 0 mm 2 mps 741 mmHg 71%
05:00 +17°C° 0 mm 2 mps 741 mmHg 71%
06:00 +19°C° 0 mm 2 mps 742 mmHg 65%
07:00 +21°C° 0 mm 3 mps 742 mmHg 60%
08:00 +25°C° 0 mm 3 mps 742 mmHg 55%
09:00 +26°C° 0 mm 3 mps 742 mmHg 53%
10:00 +28°C° 0 mm 4 mps 742 mmHg 50%
11:00 +29°C° 0 mm 5 mps 742 mmHg 48%
12:00 +30°C° 0 mm 5 mps 741 mmHg 45%
13:00 +32°C° 0 mm 5 mps 741 mmHg 43%
14:00 +32°C° 0 mm 6 mps 741 mmHg 40%
15:00 +30°C° 0 mm 5 mps 741 mmHg 44%
16:00 +30°C° 0 mm 4 mps 741 mmHg 47%
17:00 +29°C° 0 mm 4 mps 741 mmHg 50%
18:00 +27°C° 0 mm 3 mps 740 mmHg 56%
19:00 +25°C° 0 mm 2 mps 740 mmHg 62%
20:00 +24°C° 0 mm 1 mps 740 mmHg 68%
21:00 +23°C° 0 mm 1 mps 740 mmHg 71%
22:00 +22°C° 0 mm 1 mps 740 mmHg 73%
23:00 +22°C° 0 mm 1 mps 741 mmHg 76%

Tomorrow, 2 August, Monday

Time Temperature Precipitation Wind Pressure Humidity
00:00 +21°C° 0.1 mm 1 mps 740 mmHg 78%
01:00 +20°C° 0.1 mm 2 mps 740 mmHg 80%
02:00 +19°C° 0.1 mm 2 mps 740 mmHg 83%
03:00 +19°C° 0.2 mm 2 mps 740 mmHg 84%
04:00 +19°C° 0.2 mm 2 mps 740 mmHg 86%
05:00 +19°C° 0.2 mm 2 mps 740 mmHg 88%
06:00 +21°C° 0.1 mm 3 mps 740 mmHg 82%
07:00 +24°C° 0.1 mm 3 mps 740 mmHg 76%
08:00 +25°C° 0.1 mm 3 mps 740 mmHg 70%
09:00 +27°C° 0 mm 4 mps 740 mmHg 63%
10:00 +29°C° 0 mm 4 mps 739 mmHg 56%
11:00 +32°C° 0 mm 5 mps 739 mmHg 49%
12:00 +33°C° 0 mm 6 mps 739 mmHg 46%
13:00 +33°C° 0 mm 6 mps 738 mmHg 44%
14:00 +34°C° 0 mm 7 mps 738 mmHg 41%
15:00 +33°C° 0 mm 7 mps 737 mmHg 46%
16:00 +32°C° 0 mm 6 mps 737 mmHg 50%
17:00 +30°C° 0 mm 5 mps 736 mmHg 54%
18:00 +29°C° 0 mm 5 mps 736 mmHg 59%
19:00 +27°C° 0 mm 4 mps 736 mmHg 64%
20:00 +25°C° 0 mm 3 mps 736 mmHg 69%
21:00 +24°C° 0.5 mm 3 mps 736 mmHg 77%
22:00 +21°C° 0.5 mm 3 mps 736 mmHg 85%
23:00 +19°C° 0.5 mm 4 mps 737 mmHg 93%

Day after tomorrow, 3 August, Tuesday

Time Temperature Precipitation Wind Pressure Humidity
00:00 +19°C° 0 mm 4 mps 737 mmHg 93%
01:00 +18°C° 0 mm 4 mps 736 mmHg 94%
02:00 +17°C° 0 mm 4 mps 736 mmHg 95%
03:00 +18°C° 0 mm 4 mps 737 mmHg 94%
04:00 +18°C° 0 mm 4 mps 737 mmHg 92%
05:00 +18°C° 0 mm 4 mps 737 mmHg 91%
06:00 +19°C° 0 mm 4 mps 737 mmHg 88%
07:00 +19°C° 0 mm 4 mps 738 mmHg 86%
08:00 +20°C° 0 mm 5 mps 738 mmHg 83%
09:00 +20°C° 0.4 mm 5 mps 738 mmHg 82%
10:00 +20°C° 0.4 mm 5 mps 739 mmHg 81%
11:00 +20°C° 0.4 mm 6 mps 739 mmHg 80%
12:00 +21°C° 0.4 mm 6 mps 739 mmHg 74%
13:00 +21°C° 0.4 mm 5 mps 740 mmHg 68%
14:00 +22°C° 0.4 mm 5 mps 740 mmHg 62%
15:00 +22°C° 0.1 mm 5 mps 740 mmHg 63%
16:00 +22°C° 0.1 mm 5 mps 741 mmHg 65%
17:00 +22°C° 0.1 mm 4 mps 741 mmHg 66%
18:00 +20°C° 0.3 mm 4 mps 741 mmHg 74%
19:00 +18°C° 0.3 mm 3 mps 741 mmHg 83%
20:00 +17°C° 0.3 mm 2 mps 742 mmHg 91%
21:00 +16°C° 0 mm 2 mps 742 mmHg 90%
22:00 +16°C° 0 mm 2 mps 742 mmHg 90%
23:00 +15°C° 0 mm 2 mps 743 mmHg 90%

4 August, Wednesday

Time Temperature Precipitation Wind Pressure Humidity
00:00 +15°C° 0 mm 2 mps 743 mmHg 89%
01:00 +14°C° 0 mm 2 mps 743 mmHg 89%
02:00 +14°C° 0 mm 2 mps 743 mmHg 88%
03:00 +14°C° 0 mm 2 mps 743 mmHg 87%
04:00 +14°C° 0 mm 2 mps 744 mmHg 87%
05:00 +15°C° 0 mm 2 mps 744 mmHg 87%
06:00 +16°C° 0 mm 2 mps 744 mmHg 80%
07:00 +18°C° 0 mm 2 mps 744 mmHg 73%
08:00 +20°C° 0 mm 2 mps 745 mmHg 66%
09:00 +21°C° 0 mm 3 mps 745 mmHg 59%
10:00 +24°C° 0 mm 3 mps 745 mmHg 51%
11:00 +25°C° 0 mm 3 mps 745 mmHg 43%
12:00 +25°C° 0 mm 3 mps 745 mmHg 46%
13:00 +24°C° 0 mm 3 mps 745 mmHg 49%
14:00 +24°C° 0 mm 3 mps 745 mmHg 51%
15:00 +22°C° 0.1 mm 3 mps 745 mmHg 55%
16:00 +22°C° 0.1 mm 3 mps 745 mmHg 60%
17:00 +21°C° 0.1 mm 3 mps 745 mmHg 64%
18:00 +20°C° 0.2 mm 2 mps 746 mmHg 69%
19:00 +19°C° 0.2 mm 2 mps 746 mmHg 74%
20:00 +17°C° 0.2 mm 2 mps 746 mmHg 80%
21:00 +17°C° 0 mm 2 mps 746 mmHg 82%
22:00 +16°C° 0 mm 1 mps 746 mmHg 84%
23:00 +15°C° 0 mm 1 mps 746 mmHg 86%

5 August, Thursday

Time Temperature Precipitation Wind Pressure Humidity
00:00 +15°C° 0 mm 1 mps 746 mmHg 87%
01:00 +15°C° 0 mm 1 mps 746 mmHg 88%
02:00 +14°C° 0 mm 1 mps 746 mmHg 89%
03:00 +15°C° 0 mm 1 mps 747 mmHg 88%
04:00 +15°C° 0 mm 1 mps 747 mmHg 87%
05:00 +15°C° 0 mm 1 mps 747 mmHg 87%
06:00 +18°C° 0 mm 1 mps 747 mmHg 80%
07:00 +20°C° 0 mm 1 mps 747 mmHg 73%
08:00 +20°C° 0 mm 2 mps 747 mmHg 67%
09:00 +21°C° 0 mm 2 mps 747 mmHg 60%
10:00 +24°C° 0 mm 2 mps 747 mmHg 54%
11:00 +25°C° 0 mm 2 mps 747 mmHg 48%
12:00 +26°C° 0 mm 2 mps 746 mmHg 45%
13:00 +26°C° 0 mm 3 mps 746 mmHg 42%
14:00 +27°C° 0 mm 3 mps 746 mmHg 39%
15:00 +26°C° 0 mm 2 mps 745 mmHg 43%
16:00 +26°C° 0 mm 2 mps 745 mmHg 46%
17:00 +25°C° 0 mm 1 mps 745 mmHg 50%
18:00 +23°C° 0.1 mm 2 mps 745 mmHg 58%
19:00 +21°C° 0.1 mm 2 mps 745 mmHg 66%
20:00 +19°C° 0.1 mm 2 mps 745 mmHg 74%
21:00 +19°C° 0.1 mm 2 mps 744 mmHg 75%
22:00 +18°C° 0.1 mm 2 mps 744 mmHg 76%
23:00 +18°C° 0.1 mm 3 mps 744 mmHg 77%

6 August, Friday

Time Temperature Precipitation Wind Pressure Humidity
00:00 +18°C° 0.1 mm 3 mps 744 mmHg 76%
01:00 +18°C° 0.1 mm 3 mps 744 mmHg 75%
02:00 +18°C° 0.1 mm 3 mps 743 mmHg 75%
03:00 +18°C° 0 mm 3 mps 743 mmHg 71%
04:00 +18°C° 0 mm 3 mps 743 mmHg 67%
05:00 +18°C° 0 mm 4 mps 743 mmHg 63%
06:00 +20°C° 0 mm 4 mps 742 mmHg 59%
07:00 +21°C° 0 mm 4 mps 742 mmHg 54%
08:00 +23°C° 0 mm 5 mps 742 mmHg 50%
09:00 +26°C° 0 mm 5 mps 742 mmHg 45%
10:00 +28°C° 0 mm 6 mps 742 mmHg 40%
11:00 +30°C° 0 mm 6 mps 742 mmHg 36%
12:00 +30°C° 0 mm 7 mps 741 mmHg 34%
13:00 +32°C° 0 mm 7 mps 741 mmHg 32%
14:00 +33°C° 0 mm 7 mps 741 mmHg 30%
15:00 +32°C° 0 mm 6 mps 741 mmHg 32%
16:00 +30°C° 0 mm 6 mps 740 mmHg 34%
17:00 +30°C° 0 mm 5 mps 740 mmHg 36%
18:00 +28°C° 0 mm 4 mps 740 mmHg 38%
19:00 +27°C° 0 mm 4 mps 739 mmHg 40%
20:00 +25°C° 0 mm 4 mps 739 mmHg 42%
21:00 +25°C° 0 mm 3 mps 739 mmHg 41%
22:00 +25°C° 0 mm 3 mps 739 mmHg 40%
23:00 +25°C° 0 mm 3 mps 739 mmHg 39%
Show more

We Need Your Consent

Meteoprog and our Service Providers may store and access personal data such as cookies, device identifiers or other similar technologies on your device and process such data to personalise content and ads, as well as provide social media features and to analyse the traffic.

  • Store and/or access information on your device

    Cookies, device identifiers or other information can be stored or accessed on your device for the purposes indicated above.

  • Personalised ads and content, ad and content measurement, audience insights, and products development

    Ads and content can be personalised based on a profile. More data can be added to better personalise ads and content. Ad and content performance can be measured. Insights about the audience who saw the ads and content can be derived. Such data can be used to develop or improve user’s experience, systems and software.

By clicking ‘I Agree’ you will allow the use of indicated cookies, device identifiers, web beacons or other similar technologies. Your settings can be changed in the browser on your device.

For certain purposes, legitimate interests may be relied on, rather than consent. You can read more about this in our Privacy and Cookie Policy.